Location: Wald
(31.7579°N, 86.6655°W)
Time: 00:46:39
(UTC+00:00)

Resurs 1-4 Rocket - Pass Details

Date: 14 July 2020
Orbit: 800 x 814 km, 98.6° (Epoch: 12 August)

Event Time Altitude Azimuth Distance (km) Brightness Sun altitude
Rises 08:10:10 0° 358° (N) 3,337 6.0 -27.3°
Reaches altitude 10° 08:12:49 10° 346° (NNW) 2,400 5.0 -27.0°
Enters shadow 08:16:39 26° 301° (WNW) 1,539 3.4 -26.5°
